SPAINSAT

Last updated on Thu Oct 30 2025 00:02:47 GMT+0000 (Coordinated Universal Time)

1 28945U 06007A 25301.97876760 -.00000205 00000+0 00000+0 0 9998 2 28945 0.0122 221.5857 0006104 2.9642 135.4362 1.00271682 71895
UTC large
Height (km)
Speed (km/s)
/
Latitude / Longitude
Inclination (degrees)
Orbital Period (minutes)
Azimuth
Elevation
Range (km)
Doppler Factor

Next 0 passes for location: London (51.5072 / 0.1276)

Sorry there are no passes over London.